Flag for Germany Weather past 2 weeks in Gaggenau, Baden-Württemberg, Germany

Now
48 °F

Clear.


Feels Like: 48 °F
Forecast: 40 / 65 °F
Wind: 1 mph from North

Location: Karlsruhe - Baden Wurttemberg

Current Time: Apr 21, 2015 at 3:31:19 AM

Latest Report: Apr 20, 2015 at 11:50 PM


Visibility: 10 mi

Pressure: 30.30 "Hg

Humidity: 58%

Dew point: 34 °F

Location of GaggenauLocation

Historic Weather in Gaggenau — Graph

°F

Gaggenau temperature yesterday

Maximum temperature yesterday: 66 °F (at 3:50 PM)
Minimum temperature yesterday: 39 °F (at 4:50 AM)
Average temperature yesterday: 54 °F

Past Weeks' High & Low Weather Summary

 TemperatureHumidityPressure
High79 °F (Apr 15, 3:50 PM)94% (Apr 12, 6:50 AM)30.63 "Hg (Apr 12, 6:50 AM)
Low28 °F (Apr 6, 5:50 AM)17% (Apr 10, 5:20 PM)29.86 "Hg (Apr 17, 5:20 AM)
Average55 °F52%30.25 "Hg
* Reported Apr 6 12:20 AM — Apr 20 11:50 PM, Gaggenau, Weather by CustomWeather, © 2015

Note: Actual official high and low records may vary slightly from our data, if they occured in-between our weather recording intervals... More about our weather records

Advertising

Gaggenau weather history for previous 24 hours

 ConditionsComfort  
Time TempWeatherWind HumidityBarometerVisibility
11:50 PM
Mon, Apr 20
48 °FClear.1 mph58%30.30 "Hg10 mi
11:20 PM48 °FClear.1 mph62%30.30 "Hg10 mi
10:50 PM52 °FClear.1 mph50%30.30 "Hg10 mi
10:20 PM54 °FClear.2 mph47%30.30 "Hg10 mi
9:50 PM57 °FClear.3 mph41%30.27 "Hg10 mi
9:20 PM59 °FSunny.5 mph36%30.27 "Hg10 mi
8:50 PM61 °FSunny.6 mph34%30.27 "Hg10 mi
8:20 PM63 °FSunny.7 mph32%30.24 "Hg10 mi
7:50 PM63 °FSunny.8 mph32%30.24 "Hg10 mi
7:20 PM64 °FSunny.7 mph30%30.24 "Hg10 mi
6:50 PM66 °FSunny.9 mph28%30.24 "Hg10 mi
6:20 PM66 °FPassing clouds.8 mph28%30.21 "HgN/A
5:50 PM66 °FSunny.9 mph28%30.24 "Hg10 mi
5:20 PM66 °FPassing clouds.13 mph26%30.24 "HgN/A
4:50 PM66 °FPassing clouds.12 mph28%30.24 "HgN/A
4:20 PM66 °FSunny.12 mph30%30.24 "Hg10 mi
3:50 PM66 °FPassing clouds.12 mph28%30.24 "HgN/A
3:20 PM64 °FSunny.12 mph28%30.24 "Hg10 mi
2:50 PM64 °FPassing clouds.12 mph30%30.24 "HgN/A
2:20 PM64 °FPassing clouds.10 mph30%30.27 "HgN/A
1:50 PM63 °FPassing clouds.13 mph32%30.27 "HgN/A
1:20 PM63 °FSunny.13 mph32%30.27 "Hg10 mi
12:50 PM61 °FSunny.12 mph36%30.27 "Hg10 mi
12:20 PM61 °FSunny.13 mph36%30.27 "Hg10 mi
11:50 AM59 °FPassing clouds.12 mph39%30.27 "HgN/A
11:20 AM57 °FPassing clouds.13 mph44%30.27 "HgN/A
10:50 AM55 °FPassing clouds.12 mph41%30.27 "HgN/A
10:20 AM54 °FPassing clouds.10 mph44%30.27 "HgN/A
9:50 AM52 °FPassing clouds.12 mph47%30.27 "HgN/A
9:20 AM50 °FSunny.10 mph54%30.27 "Hg10 mi
8:50 AM48 °FSunny.10 mph58%30.24 "Hg10 mi
8:20 AM46 °FSunny.8 mph57%30.24 "Hg10 mi
7:50 AM45 °FSunny.9 mph61%30.24 "Hg10 mi
7:20 AM43 °FClear.8 mph66%30.21 "Hg10 mi
6:50 AM41 °FClear.8 mph66%30.21 "Hg10 mi
6:20 AM39 °FClear.8 mph70%30.21 "Hg10 mi
5:50 AM41 °FClear.9 mph66%30.18 "Hg10 mi
5:20 AM43 °FClear.6 mph61%30.18 "Hg10 mi
4:50 AM39 °FClear.7 mph65%30.18 "Hg10 mi
4:20 AM41 °FClear.5 mph61%30.18 "Hg10 mi
3:50 AM41 °FClear.7 mph61%30.18 "Hg10 mi
3:20 AM43 °FClear.3 mph57%30.18 "Hg10 mi
Weather by CustomWeather, © 2015

See weather overviewHow to use our weather pages